Temperature
19 18 18 18 18 17 17 17 17 16 16 16 16 16 16 16 15 15 15 15 15 15 15 15 15 15 15 15 15 15 15 15 15 15 14 14 14 14 14 14 14 14 14
18 18 18 18 18 17 17 17 17 16 16 16 16 16 16 16 15 15 15 15 15 15 15 15 15 15 15 15 15 15 15 15 15 15 14 14 14 14 14 14 14 14 14
19 19 18 18 18 17 17 17 17 16 16 16 16 16 16 16 15 15 15 15 15 15 15 15 15 15 15 15 15 15 15 15 15 15 15 14 14 14 14 14 14 14 14
19 19 18 18 18 17 17 17 17 16 16 16 16 16 16 16 15 15 15 15 15 15 15 15 15 15 15 15 15 15 15 15 15 15 15 15 14 14 13 13 13 13 13
19 19 19 18 18 17 17 17 17 17 16 16 16 16 16 15 15 15 15 15 15 15 15 15 15 15 15 15 15 15 15 15 15 15 15 15 14 14 14 13 13 13 13
19 19 19 18 18 17 17 17 17 17 16 16 16 16 16 15 15 15 15 15 15 15 15 15 15 15 15 15 15 15 15 15 15 15 15 15 15 14 14 14 13 13 13
19 19 18 18 18 18 17 17 17 17 16 16 16 16 16 16 15 15 15 15 15 15 15 15 15 15 15 15 15 15 15 15 15 15 15 15 15 15 15 14 14 13 13
19 19 19 18 18 18 17 17 17 17 16 16 16 16 16 16 16 15 15 15 15 15 15 15 15 15 15 15 15 15 15 15 15 15 15 15 15 14 15 14 14 14 13
19 19 19 18 18 18 17 17 17 17 17 16 16 16 16 16 16 16 15 15 15 15 15 15 15 15 15 15 15 15 15 15 15 15 15 15 14 14 14 14 14 14 13
19 19 19 18 18 18 18 17 17 17 17 16 16 16 16 16 16 16 15 15 15 15 15 15 15 15 15 15 15 15 15 15 15 14 14 14 14 14 14 14 14 14 14
19 19 19 18 18 18 18 17 17 17 17 17 16 16 16 16 16 16 16 15 15 15 15 15 15 15 15 15 15 15 15 14 14 14 14 14 14 14 14 14 14 14 13
19 19 18 18 18 18 17 17 17 17 17 17 17 16 16 16 16 16 16 15 15 15 15 15 15 15 15 15 15 15 14 14 14 14 14 14 14 14 14 14 14 13 13
18 18 18 18 18 18 17 17 17 17 17 17 16 16 16 16 16 16 16 15 15 15 15 15 15 15 15 15 15 14 14 14 14 14 14 14 14 14 14 13 13 13 13
18 18 18 18 18 18 17 17 17 17 17 17 16 16 16 16 16 16 15 15 15 15 15 15 15 15 15 15 15 14 14 14 14 14 14 14 14 14 13 13 13 13 13
18 18 18 18 17 17 17 17 17 17 17 17 17 16 16 16 16 15 15 15 15 15 15 15 15 14 14 14 14 14 14 14 14 14 14 13 13 13 13 13 13 13 12
18 18 18 18 17 17 17 17 17 17 17 17 17 16 16 16 16 15 15 15 15 15 15 15 14 14 14 14 14 14 14 14 14 14 13 13 13 13 13 13 13 12 12
18 18 18 18 17 17 17 17 17 17 16 16 16 16 16 16 15 15 15 15 15 15 15 14 14 14 14 14 14 14 14 14 14 13 13 13 13 13 13 13 13 12 12
17 17 17 17 17 17 17 17 17 16 16 16 16 16 16 16 15 15 15 15 15 15 14 14 14 14 14 14 14 14 14 14 13 13 13 13 13 13 13 12 12 12 12
18 17 17 17 17 17 17 16 16 16 16 16 16 16 16 15 15 15 15 15 14 14 14 14 14 14 14 14 14 13 13 13 13 13 13 12 12 12 12 12 12 12 12
18 17 17 17 17 17 16 16 16 16 16 16 16 15 15 15 15 15 15 14 14 14 14 14 14 14 14 13 13 13 13 13 13 13 12 12 12 12 12 12 12 12 11
17 17 17 17 17 16 16 16 16 15 15 15 15 15 15 15 15 15 14 14 14 14 14 14 13 13 13 13 13 13 13 13 13 12 12 12 12 12 11 11 11 11 11
17 17 16 16 16 16 16 15 15 15 15 15 15 15 15 15 14 14 14 14 14 13 13 13 13 13 13 13 12 12 12 12 12 12 12 12 11 11 11 11 11 10 10
16 16 16 16 16 15 15 15 15 15 14 14 14 14 14 14 14 14 14 13 13 13 13 13 13 13 12 12 12 12 12 12 12 11 11 11 11 11 11 10 10 10 10
16 16 16 15 15 15 15 15 15 14 14 14 14 14 14 14 14 13 13 13 13 13 13 13 13 12 12 12 12 12 12 11 11 11 11 11 11 10 10 10 10 10 9
15 15 15 15 15 14 14 14 14 14 14 14 14 14 13 13 13 13 13 13 13 13 13 12 12 12 12 12 11 11 11 11 11 11 11 11 10 10 10 10 10 9 9
15 15 15 14 14 14 14 14 13 13 14 13 13 13 13 13 13 13 12 12 12 12 12 12 12 12 11 11 11 11 11 11 10 10 10 10 10 10 9 9 9 9 9
Wind_Speed
6 5 5 5 5 4 5 4 4 3 4 3 3 2 1 1 2 2 4 6 6 7 6 5 4 4 4 4 4 4 4 3 3 4 4 5 5 5 4 4 4 4 4
5 5 5 5 5 5 5 5 4 4 4 3 2 2 2 1 1 1 3 5 6 6 6 5 3 3 4 4 4 3 3 1 2 3 3 3 4 4 5 4 3 3 4
10 8 7 6 7 6 6 6 5 5 4 4 3 3 3 3 3 2 2 2 4 5 5 5 4 4 4 3 3 3 4 2 1 2 3 3 2 1 4 4 3 3 3
9 8 8 7 8 7 5 5 5 5 4 5 5 4 3 2 1 1 0 1 3 3 4 5 5 4 3 3 2 3 2 3 2 1 1 2 4 3 1 3 4 4 3
11 10 10 9 7 6 6 6 5 5 4 4 5 5 3 2 1 1 2 2 2 2 4 4 5 4 3 3 2 3 3 2 3 2 2 3 3 3 3 1 2 3 3
9 8 7 7 6 6 5 6 6 5 4 5 5 5 5 4 3 2 1 1 1 2 3 4 4 4 3 3 3 3 3 3 3 2 2 3 3 2 3 2 1 1 2
8 8 8 8 7 7 7 6 6 5 5 5 5 5 6 5 4 3 3 2 1 1 1 3 3 3 3 3 4 3 3 3 3 3 2 2 2 2 3 4 2 1 1
8 9 9 9 8 8 7 6 6 5 5 5 4 4 5 4 3 4 4 4 3 3 3 3 3 3 4 4 4 3 3 3 3 3 3 2 1 2 3 3 4 2 2
7 8 8 8 8 7 7 7 7 6 5 5 4 4 4 4 4 4 4 3 3 3 3 4 3 3 4 4 4 3 3 3 3 3 3 2 1 2 2 2 3 4 2
6 6 7 8 7 7 6 6 6 6 6 6 5 4 4 4 4 4 4 4 3 3 4 4 4 4 3 4 3 3 3 3 2 2 3 3 2 2 2 2 2 3 4
7 7 6 7 6 6 5 5 5 5 5 5 5 4 3 3 3 3 4 4 4 4 5 5 4 4 4 4 4 3 3 3 2 2 3 2 2 2 2 2 2 2 3
6 6 6 5 5 5 5 5 5 5 5 5 5 4 3 3 3 3 3 4 4 4 4 4 4 4 4 4 5 4 3 3 2 2 2 1 2 2 1 2 2 2 2
5 5 5 5 5 5 5 5 5 5 5 5 5 4 4 4 3 3 3 3 4 4 4 4 4 4 4 4 4 4 3 3 3 3 3 2 3 2 1 2 2 1 2
6 5 4 4 4 4 5 5 4 5 5 5 5 5 4 4 4 3 3 3 4 4 4 4 4 4 4 4 3 3 3 3 2 2 2 2 3 4 3 2 2 2 3
5 6 6 5 4 3 3 4 4 4 5 5 6 6 4 4 4 3 3 3 4 4 4 4 3 3 3 3 4 3 3 3 2 1 0 1 2 4 3 3 3 4 3
6 6 6 5 5 4 4 4 4 4 5 5 6 5 5 4 4 4 4 4 3 3 3 4 4 3 2 4 6 5 4 3 3 2 1 1 2 2 3 3 4 5 5
5 5 5 6 6 5 5 5 5 4 5 5 5 5 5 5 5 5 5 5 4 4 3 3 4 3 3 5 7 7 4 4 3 3 2 1 1 2 2 3 3 2 3
5 4 4 3 3 3 3 3 3 4 5 5 5 4 5 5 4 4 5 4 4 4 3 3 3 3 2 5 6 6 4 3 3 2 2 2 1 1 2 3 2 2 1
5 5 5 4 3 3 3 4 3 4 5 4 5 5 6 6 6 5 5 4 3 3 3 3 4 4 2 4 6 6 4 3 2 1 2 2 2 1 4 4 2 2 2
4 4 4 3 3 3 3 4 3 4 5 6 5 5 5 6 7 7 5 3 3 3 3 3 3 4 3 3 5 6 3 3 1 1 1 2 2 2 4 4 3 1 1
3 3 4 3 3 3 4 4 3 4 5 5 4 4 4 5 6 6 4 4 4 4 3 3 2 3 3 3 5 6 4 4 3 2 1 1 2 3 4 4 3 3 1
3 3 3 2 2 3 4 4 3 4 3 4 4 4 3 4 5 5 4 4 5 4 3 3 2 1 2 3 4 6 6 5 4 2 2 1 2 2 2 2 1 2 2
4 3 4 3 1 2 4 5 4 2 3 4 4 4 3 3 4 6 5 4 4 4 4 3 3 2 2 2 3 5 6 6 3 2 3 2 2 1 0 0 1 2 2
3 3 4 3 1 1 2 3 3 3 4 4 4 4 4 3 3 4 4 5 5 5 4 4 4 3 2 2 2 2 3 4 3 2 2 2 1 1 0 1 0 1 2
3 4 4 4 3 2 1 1 3 4 4 3 3 4 4 4 3 3 3 4 4 6 6 5 5 5 4 5 5 4 3 3 3 3 2 1 1 1 1 1 1 1 0
3 3 3 3 3 2 2 1 2 4 4 3 3 3 3 3 4 3 2 1 2 3 4 5 5 4 5 4 5 5 5 5 7 5 2 1 1 2 2 2 1 1 1
Wind_Direction
199 180 169 153 145 141 143 144 132 130 118 102 98 97 85 52 44 58 86 98 100 98 102 106 101 98 99 103 105 101 84 70 82 79 55 32 38 47 46 54 71 78 82
177 174 171 156 154 154 151 146 147 143 136 128 132 142 139 108 60 42 70 95 102 103 112 111 110 108 104 97 96 102 95 77 84 103 95 49 18 18 29 32 48 60 73
180 178 172 164 156 160 166 163 164 154 145 128 104 82 64 51 39 33 26 43 103 112 114 115 117 118 117 125 127 130 126 123 49 94 129 130 168 351 3 14 27 42 56
179 176 172 167 169 172 168 158 159 151 145 133 129 127 126 132 185 192 103 35 89 110 116 115 117 120 123 133 143 135 132 125 114 53 70 129 142 134 57 355 9 29 45
179 176 177 175 173 168 165 159 153 151 152 145 141 135 136 155 152 114 88 63 46 89 114 116 114 115 125 135 122 111 110 118 131 132 115 91 81 98 127 124 350 13 11
176 174 173 165 166 164 160 158 155 157 158 153 150 154 160 160 139 123 121 86 49 51 93 117 119 121 129 133 124 113 110 107 110 111 117 134 135 143 134 142 142 26 348
169 169 169 171 170 167 167 166 162 165 169 166 171 175 175 173 172 176 172 162 136 129 155 126 124 124 130 127 119 110 101 108 112 117 116 119 133 144 136 128 132 92 355
174 177 177 175 174 173 172 173 172 175 176 174 182 183 177 176 186 187 180 179 182 190 177 144 133 125 124 115 109 108 101 102 105 108 111 109 106 122 137 144 136 104 29
176 177 178 176 173 172 176 179 177 175 178 176 181 185 181 179 188 191 183 184 192 190 163 144 136 126 119 111 111 101 100 104 102 110 106 101 99 104 108 125 139 140 138
173 173 174 176 178 178 178 176 174 174 177 174 185 188 187 184 180 172 176 182 183 163 148 149 150 141 129 121 114 109 109 103 99 105 103 98 96 89 91 109 114 126 139
171 174 176 174 171 169 169 175 179 170 172 179 183 175 177 177 167 170 182 179 169 164 164 165 162 156 152 141 129 125 122 116 94 91 108 109 107 101 95 98 100 108 120
167 166 164 158 160 165 172 181 183 178 180 176 166 163 163 160 161 168 177 167 163 169 169 163 162 162 159 156 152 155 149 146 140 125 114 111 108 97 96 104 106 121 133
150 150 151 159 170 177 177 179 181 182 180 166 159 158 161 164 171 178 173 158 155 164 164 158 164 162 159 163 167 160 155 162 171 168 160 163 133 127 131 130 127 128 122
155 153 160 172 181 185 183 179 185 181 174 165 162 170 181 181 181 176 166 161 155 151 153 154 160 157 151 153 154 149 146 146 155 167 174 176 164 171 168 155 152 132 116
167 173 178 183 183 184 190 187 189 184 172 167 175 187 190 180 172 165 164 158 151 151 152 140 137 136 140 153 154 151 141 136 120 92 108 184 173 180 170 158 160 144 134
186 186 185 185 191 195 194 189 188 188 171 168 182 185 180 175 174 171 159 148 148 144 138 143 143 143 151 159 158 149 145 142 134 121 58 30 88 103 122 131 153 159 158
187 180 186 195 198 202 192 192 192 180 170 175 179 177 176 176 179 170 157 160 163 150 143 157 152 155 168 157 151 147 141 137 136 134 123 88 71 86 87 82 72 95 174
178 181 186 185 189 188 187 185 170 166 169 175 181 178 174 177 169 160 165 171 161 158 163 165 161 156 167 155 150 146 131 126 135 143 145 131 103 114 113 103 72 36 3
180 185 184 177 172 171 170 155 152 159 162 174 184 187 180 176 171 177 180 174 161 165 168 163 163 164 182 160 150 136 126 124 134 139 120 136 138 125 121 111 100 41 349
170 165 165 147 155 180 157 145 157 168 187 196 195 188 177 176 180 183 178 166 159 169 166 163 171 171 180 171 159 142 133 138 142 98 114 148 146 143 141 138 140 158 282
165 150 145 156 183 179 155 153 168 200 211 197 181 174 169 171 174 172 164 154 152 147 154 159 162 172 182 176 165 155 150 161 165 165 189 217 170 150 161 160 171 205 198
144 144 148 169 176 164 158 166 199 216 194 172 169 175 173 170 162 159 161 157 155 154 163 162 178 220 211 187 177 170 165 156 158 186 203 209 179 171 162 168 195 164 109
159 157 156 159 157 168 169 184 215 186 151 156 169 175 166 161 159 162 164 159 161 168 180 183 196 223 231 223 198 183 178 173 166 178 182 183 175 157 122 205 155 132 127
171 162 147 150 182 203 188 194 187 164 145 156 170 170 161 158 150 163 166 168 177 182 188 193 202 213 219 227 215 199 188 180 172 162 142 127 111 83 5 24 58 148 177
184 168 167 178 202 213 210 190 164 156 153 160 166 166 165 161 157 154 171 179 191 189 190 201 196 195 217 225 205 187 186 182 177 140 111 96 76 19 330 325 302 261 201
175 171 175 181 200 190 182 183 166 163 158 163 173 174 163 156 156 153 126 87 159 185 191 192 191 205 209 196 187 187 184 172 151 133 149 184 207 228 239 250 271 271 250
Height
1535 1536 1537 1538 1539 1540 1541 1541 1542 1543 1544 1544 1545 1545 1545 1545 1545 1545 1545 1545 1545 1545 1545 1545 1545 1546 1546 1546 1547 1547 1547 1548 1548 1548 1549 1549 1549 1549 1549 1549 1548 1547 1546
1533 1535 1536 1537 1538 1539 1540 1541 1542 1543 1544 1544 1545 1545 1546 1546 1546 1546 1546 1546 1546 1546 1546 1546 1546 1547 1547 1547 1548 1548 1548 1549 1549 1549 1549 1550 1552 1551 1551 1550 1549 1548 1547
1531 1533 1535 1536 1537 1539 1540 1541 1542 1543 1544 1545 1545 1545 1546 1546 1546 1547 1547 1547 1547 1547 1547 1547 1547 1548 1548 1548 1548 1549 1549 1549 1550 1550 1550 1551 1551 1551 1552 1551 1550 1549 1548
1530 1531 1533 1535 1536 1538 1539 1540 1541 1543 1543 1544 1544 1545 1545 1546 1546 1547 1547 1547 1548 1548 1548 1548 1548 1548 1549 1549 1549 1549 1550 1550 1550 1550 1551 1551 1551 1551 1552 1553 1551 1550 1550
1528 1530 1532 1534 1536 1537 1539 1540 1541 1542 1543 1544 1544 1545 1545 1546 1546 1547 1547 1547 1548 1548 1548 1548 1549 1549 1549 1550 1550 1550 1550 1550 1550 1551 1551 1551 1552 1552 1552 1552 1552 1551 1551
1527 1529 1531 1533 1535 1537 1538 1539 1540 1541 1542 1543 1544 1544 1545 1545 1546 1547 1547 1547 1548 1548 1549 1549 1549 1550 1550 1550 1550 1550 1550 1551 1551 1551 1551 1551 1552 1552 1552 1552 1552 1552 1552
1526 1528 1530 1532 1534 1535 1537 1538 1540 1541 1541 1542 1543 1543 1544 1545 1546 1546 1547 1548 1548 1548 1549 1549 1550 1550 1550 1551 1551 1551 1551 1551 1551 1552 1552 1552 1552 1552 1552 1552 1552 1552 1552
1525 1527 1529 1531 1533 1534 1536 1537 1538 1539 1541 1541 1542 1543 1544 1545 1545 1546 1547 1548 1548 1549 1549 1549 1550 1550 1550 1551 1551 1551 1551 1551 1552 1552 1552 1552 1552 1552 1552 1552 1552 1552 1553
1524 1526 1528 1530 1532 1533 1535 1536 1537 1538 1540 1541 1541 1542 1543 1544 1545 1546 1547 1547 1548 1549 1549 1549 1550 1550 1550 1551 1551 1551 1551 1552 1552 1552 1552 1552 1552 1552 1553 1553 1553 1553 1552
1523 1525 1527 1529 1531 1533 1534 1536 1537 1538 1539 1540 1541 1542 1542 1543 1544 1545 1546 1547 1547 1548 1549 1549 1549 1550 1550 1551 1551 1552 1552 1552 1552 1552 1552 1553 1553 1553 1553 1553 1553 1553 1553
1522 1524 1526 1528 1530 1532 1534 1535 1536 1537 1538 1539 1540 1541 1542 1543 1544 1545 1546 1546 1547 1547 1548 1549 1549 1549 1550 1550 1551 1551 1552 1552 1552 1552 1553 1553 1553 1553 1553 1553 1552 1552 1552
1522 1524 1526 1527 1529 1531 1532 1533 1535 1536 1537 1538 1539 1540 1541 1542 1543 1544 1544 1545 1546 1547 1547 1548 1548 1548 1549 1549 1550 1550 1551 1552 1552 1552 1552 1552 1552 1552 1552 1552 1552 1552 1552
1522 1523 1525 1527 1528 1529 1531 1532 1533 1534 1535 1537 1538 1539 1539 1540 1541 1542 1543 1544 1545 1546 1546 1547 1547 1547 1548 1549 1549 1550 1550 1551 1551 1552 1552 1552 1552 1552 1552 1551 1551 1551 1551
1521 1522 1524 1525 1527 1528 1529 1530 1531 1532 1534 1535 1536 1537 1538 1539 1540 1541 1542 1543 1544 1544 1545 1546 1546 1547 1547 1548 1549 1549 1550 1550 1551 1551 1551 1551 1551 1551 1551 1550 1550 1550 1550
1520 1521 1523 1524 1525 1526 1527 1528 1530 1531 1532 1533 1534 1535 1536 1537 1538 1539 1540 1541 1542 1543 1544 1545 1545 1546 1546 1547 1548 1548 1549 1549 1550 1550 1550 1550 1550 1550 1550 1549 1549 1549 1549
1518 1520 1521 1522 1523 1524 1525 1526 1527 1529 1530 1531 1531 1533 1534 1535 1536 1537 1538 1540 1541 1541 1542 1543 1544 1545 1545 1546 1547 1547 1548 1548 1548 1548 1549 1549 1549 1549 1549 1548 1548 1548 1548
1517 1518 1519 1520 1521 1523 1523 1524 1525 1526 1527 1528 1529 1531 1532 1533 1534 1536 1537 1538 1539 1540 1540 1541 1542 1543 1544 1545 1545 1546 1546 1546 1547 1547 1547 1547 1547 1547 1547 1547 1547 1547 1546
1515 1516 1517 1518 1520 1521 1522 1522 1523 1524 1525 1526 1527 1529 1530 1531 1532 1533 1534 1535 1537 1537 1539 1540 1541 1541 1542 1543 1544 1544 1545 1545 1545 1545 1545 1545 1546 1546 1546 1545 1545 1545 1544
1513 1515 1515 1516 1517 1518 1519 1520 1520 1521 1522 1523 1525 1526 1527 1528 1529 1531 1532 1533 1534 1535 1537 1538 1539 1539 1540 1541 1542 1542 1543 1543 1543 1543 1543 1544 1544 1544 1544 1543 1543 1542 1542
1512 1513 1514 1514 1515 1516 1517 1517 1517 1518 1519 1520 1522 1523 1525 1526 1527 1528 1530 1531 1532 1533 1534 1535 1536 1537 1538 1539 1540 1540 1540 1541 1541 1541 1541 1541 1541 1541 1541 1541 1540 1539 1539
1510 1511 1511 1512 1513 1514 1514 1514 1515 1515 1517 1518 1520 1521 1522 1523 1524 1526 1527 1529 1530 1531 1532 1533 1534 1535 1536 1537 1537 1538 1538 1538 1538 1539 1539 1539 1539 1539 1539 1538 1538 1537 1537
1507 1508 1509 1510 1510 1511 1511 1511 1512 1513 1514 1515 1517 1518 1519 1521 1522 1523 1525 1526 1527 1528 1529 1530 1531 1532 1533 1534 1534 1535 1535 1536 1536 1536 1536 1536 1536 1536 1536 1535 1535 1534 1534
1505 1506 1506 1507 1508 1508 1509 1509 1510 1511 1512 1513 1514 1515 1517 1518 1519 1520 1522 1523 1524 1525 1526 1527 1528 1529 1530 1530 1531 1532 1532 1533 1533 1533 1534 1534 1533 1533 1533 1532 1532 1531 1530
1502 1503 1504 1504 1505 1506 1507 1507 1508 1509 1509 1510 1511 1513 1514 1515 1516 1517 1519 1520 1521 1522 1523 1524 1525 1526 1526 1527 1528 1528 1529 1529 1530 1530 1530 1531 1530 1530 1530 1529 1528 1527 1527
1500 1501 1501 1502 1502 1503 1504 1505 1506 1506 1507 1507 1508 1510 1511 1512 1513 1514 1516 1517 1518 1519 1520 1521 1522 1522 1523 1524 1524 1525 1525 1526 1526 1526 1526 1526 1526 1526 1526 1525 1525 1524 1523
1497 1498 1499 1499 1500 1501 1501 1502 1503 1504 1504 1505 1506 1507 1508 1509 1510 1511 1513 1514 1515 1516 1517 1518 1519 1519 1520 1520 1521 1521 1522 1522 1523 1523 1522 1522 1522 1522 1522 1522 1521 1520 1520